Location: Baia de Cri?
(46.1667°N, 22.7167°E)
Time: 19:20:08
(UTC+00:00)

Tiangong - Pass Details

Date: 15 March 2026
Orbit: 375 x 384 km, 41.5° (Epoch: 21 April)

Event Time Altitude Azimuth Distance (km) Brightness Sun altitude
Exits shadow 02:29:12 15° 133° (SE) 1,168 0.5 -23.4°
Drops below altitude 10° 02:30:16 10° 115° (ESE) 1,408 1.2 -23.2°
Sets 02:32:51 0° 94° (E) 2,269 2.8 -22.8°
